Location: Helion Bumpstead
(52.0500°N, 0.4000°E)
Time: 22:32:32
(UTC+00:00)

Cosmos 1725 Rocket - Pass Details

Date: 16 February 2026
Orbit: 962 x 989 km, 82.9° (Epoch: 11 March)

Event Time Altitude Azimuth Distance (km) Brightness Sun altitude
Rises 06:17:18 0° 183° (S) 3,634 7.1 -8.9°
Reaches altitude 10° 06:19:47 10° 182° (S) 2,692 6.4 -8.6°
Maximum altitude 06:25:56 79° 98° (E) 988 4.2 -7.6°
Drops below altitude 10° 06:32:09 10° 12° (NNE) 2,719 6.4 -6.7°
Sets 06:34:40 0° 12° (NNE) 3,673 7.0 -6.3°
